DW9289 Weather Reports


time (UTC)temp
C
wind
direction
speed
KPH
gust
KPH
rain 1hr
cm
rain 24hr
cm
rain mn
cm
humidity
%
barometer
mb
20260504110555 13 235 4.8 6.4 0.00 0.00 0.00 67 1013.8
20260504100517 13 230 4.8 4.8 0.00 0.00 0.00 65 1013.6
20260504081910 12 233 3.2 4.8 0.00 0.00 0.00 66 1013.9
20260504081406 12 253 3.2 3.2 0.00 0.00 0.00 65 1014.0
20260504080902 13 213 1.6 3.2 0.00 0.00 0.00 66 1014.1
20260504080400 12 234 3.2 3.2 0.00 0.00 0.00 65 1014.0
20260504070327 12 215 3.2 4.8 0.00 0.00 0.00 65 1014.4
20260504060247 13 258 4.8 6.4 0.00 0.00 0.00 63 1014.8
20260504050710 13 234 6.4 6.4 0.00 0.00 0.00 62 1014.7
20260504050206 13 201 3.2 3.2 0.00 0.00 0.00 64 1014.9
20260504045703 13 225 4.8 6.4 0.00 0.00 0.00 63 1014.9
20260504045158 13 226 1.6 3.2 0.00 0.00 0.00 62 1015.0
20260504044656 13 215 4.8 4.8 0.00 0.00 0.00 63 1014.9
20260504044153 13 241 3.2 4.8 0.00 0.00 0.00 62 1015.1
20260504043650 13 235 4.8 4.8 0.00 0.00 0.00 62 1015.0
20260504043147 13 214 3.2 3.2 0.00 0.00 0.00 62 1015.3
20260504042644 13 232 1.6 3.2 0.00 0.00 0.00 61 1015.2
20260504042141 13 218 3.2 3.2 0.00 0.00 0.00 62 1015.3
20260504041636 13 225 3.2 4.8 0.00 0.00 0.00 61 1015.3
20260504041133 13 211 3.2 3.2 0.00 0.00 0.00 61 1015.2
20260504040630 13 227 1.6 1.6 0.00 0.00 0.00 64 1015.3
20260504040127 13 208 3.2 3.2 0.00 0.00 0.00 64 1015.4
20260504035624 13 207 1.6 3.2 0.00 0.00 0.00 61 1015.4
20260504035120 13 221 1.6 1.6 0.00 0.00 0.00 62 1015.6
20260504034618 13 258 3.2 3.2 0.00 0.00 0.00 59 1015.6
20260504034114 13 216 1.6 3.2 0.00 0.00 0.00 60 1015.8
20260504033613 13 211 1.6 3.2 0.00 0.00 0.00 60 1015.8
20260504033110 13 194 1.6 1.6 0.00 0.00 0.00 59 1015.8
20260504032606 13 205 1.6 1.6 0.00 0.00 0.00 59 1016.0
20260504032104 13 203 3.2 3.2 0.00 0.00 0.00 58 1015.6
20260504031601 13 239 3.2 4.8 0.00 0.00 0.00 59 1015.6
20260504031056 13 233 3.2 3.2 0.00 0.00 0.00 59 1015.9
20260504030554 13 210 3.2 3.2 0.00 0.00 0.00 58 1015.7
20260504030050 14 209 1.6 1.6 0.00 0.00 0.00 56 1015.8
20260504025548 14 242 3.2 3.2 0.00 0.00 0.00 53 1015.8
20260504025044 14 179 0.0 0.0 0.00 0.00 0.00 57 1015.7
20260504024541 14 218 1.6 1.6 0.00 0.00 0.00 57 1015.7
20260504024038 14 217 1.6 3.2 0.00 0.00 0.00 54 1015.8
20260504023535 14 226 3.2 3.2 0.00 0.00 0.00 57 1015.3
20260504023030 13 196 3.2 3.2 0.00 0.00 0.00 57 1015.7
20260504022526 13 208 1.6 1.6 0.00 0.00 0.00 57 1015.3
20260504022023 13 204 1.6 1.6 0.00 0.00 0.00 65 1015.3
20260504021521 13 217 1.6 1.6 0.00 0.00 0.00 62 1015.4
20260504021017 13 215 1.6 1.6 0.00 0.00 0.00 61 1015.7
20260504020514 13 165 0.0 1.6 0.00 0.00 0.00 60 1015.3
20260504020011 13 169 1.6 1.6 0.00 0.00 0.00 61 1015.6
20260504015507 13 214 1.6 1.6 0.00 0.00 0.00 63 1015.0
20260504015003 13 227 1.6 1.6 0.00 0.00 0.00 60 1015.2
20260504014459 14 210 1.6 1.6 0.00 0.00 0.00 57 1015.1
20260504013956 14 205 1.6 3.2 0.00 0.00 0.00 59 1015.1
20260504013455 13 214 1.6 1.6 0.00 0.00 0.00 60 1015.0
20260504012950 13 220 1.6 3.2 0.00 0.00 0.00 60 1015.1
20260504012449 13 224 3.2 3.2 0.00 0.00 0.00 60 1015.0
20260504011946 13 203 1.6 1.6 0.00 0.00 0.00 64 1015.2
20260504011442 13 184 0.0 0.0 0.00 0.00 0.00 64 1015.3
20260504010938 13 205 1.6 1.6 0.00 0.00 0.00 64 1015.0
20260504010434 13 194 1.6 1.6 0.00 0.00 0.00 64 1015.4
20260504005931 13 172 0.0 0.0 0.00 0.00 0.00 64 1015.2
20260504005427 13 184 0.0 0.0 0.00 0.00 0.00 62 1015.4
20260504004925 14 206 0.0 0.0 0.00 0.00 0.00 59 1015.4
20260504004423 14 207 0.0 0.0 0.00 0.00 0.00 62 1015.6
20260504003920 15 207 0.0 0.0 0.00 0.00 0.00 57 1015.6
20260504003416 15 191 0.0 0.0 0.00 0.00 0.00 59 1015.6
20260504002913 15 192 0.0 0.0 0.00 0.00 0.00 58 1015.3
20260504002410 16 192 0.0 1.6 0.00 0.00 0.00 55 1015.4
20260504001907 16 196 0.0 1.6 0.00 0.00 0.00 53 1015.6
20260504001405 16 197 1.6 1.6 0.00 0.00 0.00 54 1015.4
20260504000901 16 196 1.6 1.6 0.00 0.00 0.00 49 1015.3
20260504000358 16 185 0.0 1.6 0.00 0.00 0.00 50 1015.4
20260503235855 16 147 0.0 1.6 0.00 0.00 0.00 48 1015.7
20260503235353 17 198 0.0 1.6 0.00 0.00 0.00 50 1015.4
20260503234850 17 207 0.0 1.6 0.00 0.00 0.00 48 1015.8
20260503234348 17 205 1.6 1.6 0.00 0.00 0.00 49 1015.9
20260503233845 17 188 1.6 1.6 0.00 0.00 0.00 45 1015.7
20260503233342 17 205 1.6 3.2 0.00 0.00 0.00 45 1015.9
20260503232838 17 226 6.4 9.7 0.00 0.00 0.00 43 1016.0
20260503232335 17 239 0.0 1.6 0.00 0.00 0.00 46 1016.2
20260503231834 17 207 0.0 0.0 0.00 0.00 0.00 46 1016.0
20260503231330 17 190 0.0 0.0 0.00 0.00 0.00 45 1015.9
20260503230826 17 189 0.0 1.6 0.00 0.00 0.00 49 1016.1
20260503230323 17 13 0.0 0.0 0.00 0.00 0.00 43 1016.0
20260503225821 18 16 0.0 1.6 0.00 0.00 0.00 44 1015.9
20260503225316 18 185 1.6 1.6 0.00 0.00 0.00 42 1016.0
20260503224813 18 196 3.2 3.2 0.00 0.00 0.00 42 1016.2
20260503224310 18 247 1.6 3.2 0.00 0.00 0.00 41 1016.1
20260503223808 18 176 1.6 1.6 0.00 0.00 0.00 41 1015.9
20260503223305 18 152 3.2 3.2 0.00 0.00 0.00 40 1016.1
20260503222801 18 247 6.4 9.7 0.00 0.00 0.00 40 1016.3
20260503222300 18 297 0.0 0.0 0.00 0.00 0.00 40 1016.5
20260503221757 18 227 1.6 3.2 0.00 0.00 0.00 41 1016.2
20260503221255 18 244 6.4 6.4 0.00 0.00 0.00 40 1016.4
20260503220751 18 253 1.6 3.2 0.00 0.00 0.00 39 1016.6
20260503220248 18 247 4.8 4.8 0.00 0.00 0.00 40 1016.7
20260503215745 18 246 1.6 3.2 0.00 0.00 0.00 40 1016.7
20260503215242 18 212 0.0 1.6 0.00 0.00 0.00 41 1016.6
20260503214740 18 241 4.8 6.4 0.00 0.00 0.00 42 1016.7
20260503214237 18 280 0.0 0.0 0.00 0.00 0.00 43 1017.1
20260503213735 19 272 1.6 3.2 0.00 0.00 0.00 41 1017.0
20260503213232 19 216 1.6 3.2 0.00 0.00 0.00 42 1017.0
20260503212729 18 214 6.4 6.4 0.00 0.00 0.00 40 1017.0
20260503212226 18 164 3.2 4.8 0.00 0.00 0.00 40 1017.0
20260503211724 18 225 1.6 1.6 0.00 0.00 0.00 41 1017.3
20260503211220 19 217 0.0 1.6 0.00 0.00 0.00 41 1017.3
20260503210715 19 308 0.0 1.6 0.00 0.00 0.00 40 1017.4
20260503210213 19 248 1.6 1.6 0.00 0.00 0.00 39 1017.5
20260503205708 19 237 4.8 4.8 0.00 0.00 0.00 39 1017.6
20260503205205 19 246 1.6 3.2 0.00 0.00 0.00 40 1017.5
20260503204701 19 233 4.8 6.4 0.00 0.00 0.00 39 1017.7
20260503204159 20 234 3.2 3.2 0.00 0.00 0.00 39 1017.5
20260503203656 20 212 0.0 1.6 0.00 0.00 0.00 42 1017.8
20260503203154 20 208 1.6 3.2 0.00 0.00 0.00 38 1017.8
20260503202650 21 239 4.8 4.8 0.00 0.00 0.00 36 1017.8
20260503202148 21 304 0.0 0.0 0.00 0.00 0.00 36 1018.1
20260503201646 20 305 0.0 1.6 0.00 0.00 0.00 40 1018.1
20260503201143 20 261 1.6 3.2 0.00 0.00 0.00 36 1018.2
20260503200639 21 269 0.0 1.6 0.00 0.00 0.00 36 1018.5
20260503200136 21 240 1.6 1.6 0.00 0.00 0.00 37 1018.6
20260503195633 21 238 4.8 6.4 0.00 0.00 0.00 35 1018.6
20260503195130 21 305 1.6 1.6 0.00 0.00 0.00 35 1018.6
20260503194627 21 241 4.8 4.8 0.00 0.00 0.00 34 1018.6
20260503194122 21 182 3.2 3.2 0.00 0.00 0.00 35 1018.8
20260503193620 21 344 0.0 1.6 0.00 0.00 0.00 36 1019.0
20260503193114 21 202 3.2 4.8 0.00 0.00 0.00 38 1018.8
20260503192611 20 202 3.2 3.2 0.00 0.00 0.00 35 1019.0
20260503192106 21 150 3.2 3.2 0.00 0.00 0.00 36 1019.2
20260503191603 20 233 1.6 1.6 0.00 0.00 0.00 41 1019.3
20260503191059 19 223 1.6 3.2 0.00 0.00 0.00 41 1019.2
20260503190556 19 211 0.0 1.6 0.00 0.00 0.00 39 1019.1
20260503190053 20 244 4.8 4.8 0.00 0.00 0.00 39 1019.4
20260503185545 20 190 1.6 1.6 0.00 0.00 0.00 40 1019.3
20260503185045 21 125 3.2 4.8 0.00 0.00 0.00 35 1019.4
20260503184541 20 339 0.0 0.0 0.00 0.00 0.00 39 1019.5
20260503184038 19 333 0.0 0.0 0.00 0.00 0.00 42 1019.7
20260503183534 20 249 3.2 4.8 0.00 0.00 0.00 39 1019.7
20260503183031 18 307 1.6 1.6 0.00 0.00 0.00 44 1019.7
20260503182530 20 211 1.6 3.2 0.00 0.00 0.00 40 1020.0
20260503182027 20 200 3.2 3.2 0.00 0.00 0.00 41 1019.7
20260503181524 19 14 1.6 1.6 0.00 0.00 0.00 42 1019.7
20260503181020 18 187 1.6 1.6 0.00 0.00 0.00 40 1020.1
20260503180518 18 246 4.8 6.4 0.00 0.00 0.00 41 1020.1
20260503180015 18 75 3.2 3.2 0.00 0.00 0.00 40 1020.0
20260503175513 18 190 3.2 3.2 0.00 0.00 0.00 40 1020.1
20260503175009 18 211 0.0 0.0 0.00 0.00 0.00 41 1020.3
20260503174507 18 306 1.6 1.6 0.00 0.00 0.00 38 1020.3
20260503174003 18 267 6.4 6.4 0.00 0.00 0.00 39 1020.3
20260503173457 18 262 1.6 1.6 0.00 0.00 0.00 41 1020.2
20260503172954 18 327 0.0 1.6 0.00 0.00 0.00 36 1020.2
20260503172452 17 239 1.6 3.2 0.00 0.00 0.00 40 1020.5
20260503171949 17 246 1.6 3.2 0.00 0.00 0.00 48 1020.5
20260503171445 17 263 1.6 3.2 0.00 0.00 0.00 41 1020.5
20260503170943 17 344 0.0 0.0 0.00 0.00 0.00 43 1020.7
20260503170439 16 44 1.6 1.6 0.00 0.00 0.00 45 1020.5
20260503150831 13 43 1.6 3.2 0.00 0.00 0.00 47 1021.7
20260503150327 13 247 3.2 4.8 0.00 0.00 0.00 51 1021.6
20260503140252 11 255 4.8 4.8 0.00 0.00 0.00 64 1021.6
20260503131221 9 172 0.0 0.0 0.00 0.00 0.00 89 1021.5
20260503130719 9 87 0.0 0.0 0.00 0.00 0.00 92 1021.6
20260503130216 8 218 0.0 0.0 0.00 0.00 0.00 94 1021.6
20260503120142 4 214 0.0 0.0 0.00 0.00 0.00 99 1021.5